Preview of NWS' New Version of Forecast
This preview is not operational and should not be used for support decisions.

Regional Weather Roundup (RWR)

Issued by National Weather Service (NWS)

                            
000
ASCA42 TJSJ 231110
RWRPR 
PUERTO RICO/U.S. VIRGIN ISLANDS HOURLY WEATHER ROUNDUP
NATIONAL WEATHER SERVICE SAN JUAN PR
700 AM AST SAT MAR 23 2019

PRZ001>002-007>008-010-231200-
PUERTO RICO
  
CITY           SKY/WX    TMP DP  RH WIND       PRES   REMARKS
SAN JUAN LMM   PTCLDY    75  70  83 CALM      30.06R                  
AGUADILLA      MOCLDY    72  66  83 CALM      30.05                   
CEIBA          MOCLDY    75  72  88 CALM      30.07R                  
$$

VIZ001>002-231200-
U.S. VIRGIN ISLANDS
  
CITY           SKY/WX    TMP DP  RH WIND       PRES   REMARKS
CHARLOTTE AMA  PTCLDY    79  70  73 E14       30.04R                  
CHRISTIANSTED  CLEAR     75  68  78 NE5       30.05                   
$$

HOURLY WEATHER ROUNDUP FOR THE NEWS MEDIA
  
CITY           SKY/WX    TMP DP  RH WIND       PRES   REMARKS
ORLANDO        FAIR      54  50  86 N3        30.14R                  
NEW YORK       MOCLDY    35  22  58 W26G37    29.71R WCI  22          
NEWARK         MOCLDY    35  21  56 W17G29    29.73R WCI  25          
CHICAGO        FAIR      26  23  88 CALM      30.28R                  
HARTFORD       LGT SNOW  31  29  92 W24G31    29.40R FOG     WCI  17  
BOSTON         FLURRIES  35  28  75 W22G35    29.35  WCI  23          
DALLAS         CLOUDY    63  46  54 S13       30.02S                  
PHILADELPHIA   MOCLDY    36  20  52 W15G24    29.86R WCI  27          
LOS ANGELES    MOCLDY    56  51  84 SW6       30.14F                  
WASHINGTON DC  FAIR      34  21  59 NW14      30.00R WCI  25